Tracking 31027 objects as of 19-Jul-2025
HD Live streaming from Space Station
objects crossing your sky now

NINGXIA-1 1

Track NINGXIA-1 1 now!
10-day predictions


NORAD ID: 44779
Int'l Code: 2019-076A
Perigee: 886.7 km
Apogee: 901.8 km
Inclination: 45.0 °
Period: 102.7 minutes
Semi major axis: 7265 km
RCS: Unknown
Launch date: November 13, 2019
Source: People's Republic of China (PRC)
Launch site: Taiyaun Space Center, China (TSC)
Your satellite tracking list
FENGYUN 1C DEB
Track 1 satellite(s)




NASA's NSSDC Master Catalog

Two Line Element Set (TLE):
1 44779U 19076A   25199.75716222 -.00000093  00000-0  24347-4 0  9999
2 44779  45.0049 229.7991 0010425  12.5796 347.5297 14.01927595291064
Source of the keplerian elements: AFSPC